Weather History for KAWO - November, 2014

Change the Weather History Date:

Saturday, November 29, 2014

  Actual Average (WUND) Record (WUND)
Temperature  
Mean Temperature 25 °F -  
Max Temperature 33 °F - - (-1)
Min Temperature 17 °F - - (-1)
Degree Days  
Heating Degree Days 40    
Moisture  
Dew Point 20 °F    
Average Humidity 74    
Maximum Humidity 93    
Minimum Humidity 59    
Precipitation  
Precipitation 0.05 in - - ()
Sea Level Pressure  
Sea Level Pressure 29.91 in    
Wind  
Wind Speed 6 mph (NNW)    
Max Wind Speed 16 mph    
Max Gust Speed 21 mph    
Visibility 9 miles    
Events      
Averages and records for this station are not official NWS values.
T = Trace of Precipitation, MM = Missing Value Source: NWS Daily Summary

Daily Weather History Graph

Daily Weather History Graph

Search for Another Location

Airport or City:

Trip Planner

Search our weather history database for the weather conditions in past years. The results will help you decide how hot, cold, wet, or windy it might be!

Date:

Astronomy

Nov. 29, 2014 Rise Set
Actual Time 7:35 AM PST 4:18 PM PST
Civil Twilight 7:00 AM PST 4:53 PM PST
Nautical Twilight 6:21 AM PST 5:32 PM PST
Astronomical Twilight 5:43 AM PST 6:09 PM PST
Moon 12:46 PM PST (11/29) No Moon Set
Length of Visible Light 9h 53m
Length of Day
8h 42m
First Quarter, 55% of the Moon is Illuminated
Nov 29
First Quarter
Dec 6
Full
Dec 14
Last Quarter
Dec 21
New
Dec 28
First Quarter

Hourly Weather History & Observations

Time (PST) Temp. Windchill Dew Point Humidity Pressure Visibility Wind Dir Wind Speed Gust Speed Precip Events Conditions
12:15 AM 32.0 °F 26.4 °F 28.4 °F 87% 29.56 in 1.5 mi SSW 5.8 mph - 0.03 in   Overcast
12:35 AM 33.8 °F - 28.4 °F 81% 29.56 in 3.0 mi Calm Calm - 0.04 in   Overcast
12:55 AM 33.8 °F - 28.4 °F 81% 29.56 in 4.0 mi Calm Calm - 0.04 in   Overcast
1:15 AM 33.8 °F - 28.4 °F 81% 29.57 in 3.0 mi Calm Calm - N/A   Overcast
1:35 AM 33.8 °F - 28.4 °F 81% 29.57 in 4.0 mi Calm Calm - N/A   Mostly Cloudy
1:55 AM 33.8 °F - 28.4 °F 81% 29.58 in 3.0 mi Calm Calm - N/A   Overcast
2:15 AM 32.0 °F - 28.4 °F 87% 29.58 in 3.0 mi Calm Calm - 0.01 in   Overcast
2:35 AM 33.8 °F 30.8 °F 28.4 °F 81% 29.59 in 10.0 mi SW 3.5 mph - 0.01 in   Mostly Cloudy
2:55 AM 32.0 °F 27.5 °F 30.2 °F 93% 29.60 in 8.0 mi South 4.6 mph - 0.01 in   Mostly Cloudy
3:15 AM 33.8 °F 29.6 °F 28.4 °F 81% 29.60 in 2.0 mi South 4.6 mph - N/A   Overcast
3:35 AM 32.0 °F 27.5 °F 28.4 °F 87% 29.60 in 3.0 mi South 4.6 mph - N/A   Overcast
3:55 AM 32.0 °F 27.5 °F 28.4 °F 87% 29.60 in 3.0 mi SSW 4.6 mph - N/A   Overcast
4:15 AM 33.8 °F 28.6 °F 28.4 °F 81% 29.61 in 5.0 mi SW 5.8 mph - N/A   Overcast
4:35 AM 33.8 °F - 28.4 °F 81% 29.62 in 8.0 mi Calm Calm - N/A   Overcast
4:55 AM 32.0 °F 25.6 °F 28.4 °F 87% 29.63 in 8.0 mi NW 6.9 mph - N/A   Overcast
5:15 AM 33.8 °F 29.6 °F 28.4 °F 81% 29.64 in 7.0 mi NW 4.6 mph - N/A   Overcast
5:35 AM 32.0 °F 26.4 °F 28.4 °F 87% 29.65 in 4.0 mi WNW 5.8 mph - N/A   Overcast
5:55 AM 32.0 °F 24.2 °F 28.4 °F 87% 29.66 in 10.0 mi NW 9.2 mph - N/A   Overcast
6:15 AM 30.2 °F 21.9 °F 26.6 °F 86% 29.68 in 10.0 mi NW 9.2 mph - N/A   Overcast
6:35 AM 30.2 °F 21.3 °F 26.6 °F 86% 29.69 in 10.0 mi NW 10.4 mph - N/A   Overcast
6:55 AM 30.2 °F 22.6 °F 24.8 °F 80% 29.70 in 10.0 mi NW 8.1 mph - N/A   Overcast
7:15 AM 30.2 °F 22.6 °F 24.8 °F 80% 29.72 in 10.0 mi NW 8.1 mph - N/A   Overcast
7:35 AM 30.2 °F 22.6 °F 26.6 °F 86% 29.73 in 10.0 mi NW 8.1 mph - N/A   Overcast
7:55 AM 30.2 °F 20.8 °F 23.0 °F 75% 29.75 in 10.0 mi NW 11.5 mph - N/A   Overcast
8:15 AM 30.2 °F 20.8 °F 21.2 °F 69% 29.77 in 10.0 mi NW 11.5 mph - N/A   Overcast
8:35 AM 28.4 °F 17.5 °F 19.4 °F 69% 29.79 in 10.0 mi NW 13.8 mph - N/A   Mostly Cloudy
8:55 AM 24.8 °F 14.6 °F 19.4 °F 80% 29.81 in 10.0 mi NW 10.4 mph 16.1 mph N/A   Partly Cloudy
9:15 AM 26.6 °F 15.2 °F 19.4 °F 74% 29.82 in 10.0 mi NW 13.8 mph - N/A   Scattered Clouds
9:35 AM 28.4 °F 18.0 °F 17.6 °F 64% 29.84 in 10.0 mi WNW 12.7 mph - N/A   Partly Cloudy
9:55 AM 28.4 °F 18.5 °F 19.4 °F 69% 29.85 in 10.0 mi NW 11.5 mph 20.7 mph N/A   Clear
10:15 AM 26.6 °F 15.7 °F 19.4 °F 74% 29.87 in 10.0 mi NW 12.7 mph 17.3 mph N/A   Clear
10:35 AM 28.4 °F 16.6 °F 17.6 °F 64% 29.88 in 10.0 mi NW 16.1 mph - N/A   Clear
10:55 AM 28.4 °F 18.5 °F 19.4 °F 69% 29.89 in 10.0 mi WNW 11.5 mph - N/A   Clear
11:15 AM 28.4 °F 18.5 °F 17.6 °F 64% 29.90 in 10.0 mi NNW 11.5 mph - N/A   Clear
11:35 AM 28.4 °F 19.1 °F 19.4 °F 69% 29.91 in 10.0 mi NNW 10.4 mph - N/A   Clear
11:55 AM 28.4 °F 17.0 °F 17.6 °F 64% 29.92 in 10.0 mi NW 15.0 mph - N/A   Clear
12:15 PM 28.4 °F 18.5 °F 17.6 °F 64% 29.94 in 10.0 mi NW 11.5 mph - N/A   Scattered Clouds
12:35 PM 28.4 °F 20.4 °F 15.8 °F 59% 29.95 in 10.0 mi NNW 8.1 mph - N/A   Overcast
12:55 PM 28.4 °F 19.1 °F 17.6 °F 64% 29.96 in 10.0 mi NNW 10.4 mph - N/A   Overcast
1:15 PM 28.4 °F 19.1 °F 17.6 °F 64% 29.97 in 10.0 mi NNW 10.4 mph - N/A   Overcast
1:35 PM 28.4 °F 19.7 °F 17.6 °F 64% 29.98 in 10.0 mi NNW 9.2 mph - N/A   Overcast
1:55 PM 28.4 °F 19.7 °F 15.8 °F 59% 30.00 in 10.0 mi NNW 9.2 mph - N/A   Scattered Clouds
2:15 PM 30.2 °F 21.9 °F 17.6 °F 60% 30.02 in 10.0 mi NW 9.2 mph - N/A   Mostly Cloudy
2:35 PM 30.2 °F 22.6 °F 17.6 °F 60% 30.03 in 10.0 mi NW 8.1 mph - N/A   Overcast
2:55 PM 28.4 °F 19.1 °F 15.8 °F 59% 30.04 in 10.0 mi NW 10.4 mph - N/A   Mostly Cloudy
3:15 PM 28.4 °F 21.2 °F 17.6 °F 64% 30.06 in 10.0 mi NNW 6.9 mph - N/A   Overcast
3:35 PM 28.4 °F 20.4 °F 15.8 °F 59% 30.06 in 10.0 mi NNW 8.1 mph - N/A   Scattered Clouds
3:55 PM 26.6 °F 20.0 °F 15.8 °F 64% 30.08 in 10.0 mi NW 5.8 mph - N/A   Clear
4:15 PM 26.6 °F 21.2 °F 15.8 °F 64% 30.09 in 10.0 mi NNW 4.6 mph - N/A   Clear
4:35 PM 26.6 °F 21.2 °F 14.0 °F 59% 30.09 in 10.0 mi North 4.6 mph - N/A   Clear
4:55 PM 23.0 °F 17.0 °F 14.0 °F 68% 30.10 in 10.0 mi NNW 4.6 mph - N/A   Clear
5:15 PM 24.8 °F 17.9 °F 15.8 °F 69% 30.11 in 10.0 mi NNW 5.8 mph - N/A   Clear
5:35 PM 24.8 °F 19.1 °F 14.0 °F 64% 30.12 in 10.0 mi North 4.6 mph - N/A   Clear
5:55 PM 23.0 °F 15.8 °F 12.2 °F 63% 30.12 in 10.0 mi North 5.8 mph - N/A   Clear
6:15 PM 21.2 °F 12.6 °F 14.0 °F 74% 30.13 in 10.0 mi North 6.9 mph - N/A   Clear
6:35 PM 21.2 °F 14.9 °F 15.8 °F 80% 30.14 in 10.0 mi North 4.6 mph - N/A   Clear
6:55 PM 23.0 °F 17.0 °F 12.2 °F 63% 30.15 in 10.0 mi North 4.6 mph - N/A   Clear
7:15 PM 21.2 °F 13.6 °F 14.0 °F 74% 30.16 in 10.0 mi North 5.8 mph - N/A   Clear
7:35 PM 19.4 °F 11.5 °F 12.2 °F 74% 30.17 in 10.0 mi NNE 5.8 mph - N/A   Clear
7:55 PM 19.4 °F 12.8 °F 12.2 °F 74% 30.17 in 10.0 mi NE 4.6 mph - N/A   Clear
8:15 PM 19.4 °F 12.8 °F 14.0 °F 80% 30.17 in 10.0 mi NE 4.6 mph - N/A   Clear
8:35 PM 21.2 °F - 12.2 °F 68% 30.19 in 10.0 mi Calm Calm - N/A   Clear
8:55 PM 19.4 °F 14.3 °F 14.0 °F 80% 30.19 in 10.0 mi NNW 3.5 mph - N/A   Clear
9:15 PM 19.4 °F 12.8 °F 15.8 °F 86% 30.20 in 10.0 mi North 4.6 mph - N/A   Clear
9:35 PM 19.4 °F 11.5 °F 12.2 °F 74% 30.21 in 10.0 mi North 5.8 mph - N/A   Clear
9:55 PM 19.4 °F 12.8 °F 12.2 °F 74% 30.21 in 10.0 mi NNE 4.6 mph - N/A   Clear
10:15 PM 21.2 °F 16.4 °F 14.0 °F 74% 30.23 in 10.0 mi NNE 3.5 mph - N/A   Clear
10:35 PM 21.2 °F 16.4 °F 12.2 °F 68% 30.22 in 10.0 mi NNE 3.5 mph - N/A   Clear
10:55 PM 17.6 °F 8.2 °F 10.4 °F 73% 30.23 in 10.0 mi NNE 6.9 mph - N/A   Clear
11:15 PM 19.4 °F 12.8 °F 12.2 °F 74% 30.24 in 10.0 mi NNE 4.6 mph - N/A   Clear
11:35 PM 19.4 °F 10.4 °F 10.4 °F 68% 30.24 in 10.0 mi NNE 6.9 mph - N/A   Clear
11:55 PM 19.4 °F 10.4 °F 12.2 °F 74% 30.25 in 10.0 mi NNE 6.9 mph - N/A   Clear